Theta_e
317 316 315 315 315 315 315 314 313 313 314 314 315 314 314 315 306 298 293 304 307 313 305 297 298 300 300 297 298 297 289 284 285 285 287 293 291 296 299 296 298 298 298 300 303
317 316 315 315 314 314 313 314 313 313 312 312 313 314 314 312 301 294 304 313 312 310 297 296 295 297 296 294 296 292 287 285 290 291 290 293 293 294 292 293 293 294 300 303 303
316 315 315 314 314 313 313 313 313 312 312 311 313 315 313 306 293 291 309 311 310 301 296 296 298 296 293 294 293 291 286 290 291 293 293 292 293 294 289 287 290 290 295 301 302
315 315 314 313 313 313 313 312 312 312 312 312 313 313 300 298 285 294 308 308 305 299 299 298 297 293 291 289 293 288 291 291 292 293 292 291 292 290 289 289 293 295 300 303 302
315 314 314 313 312 312 312 312 312 311 311 311 312 311 298 291 289 297 304 300 298 297 296 296 293 293 289 290 291 289 290 291 293 293 294 292 289 290 289 292 293 295 300 300 301
315 314 313 312 311 312 312 312 311 309 309 310 311 306 294 286 295 297 296 296 296 296 296 297 294 295 291 290 289 291 290 291 291 293 294 289 289 289 289 292 290 291 293 296 298
315 314 313 311 311 312 312 312 311 310 309 310 309 298 293 289 297 298 296 294 294 294 296 298 299 293 292 289 292 290 287 289 290 292 291 293 287 285 288 290 289 287 289 291 293
314 314 312 311 310 311 310 311 311 312 310 309 301 298 289 296 298 296 297 296 298 296 295 298 300 294 290 292 289 287 287 284 288 291 291 291 281 286 289 287 286 286 287 288 289
313 313 312 311 310 311 309 309 309 309 309 305 296 293 287 297 292 295 295 292 294 298 298 297 295 290 291 287 286 285 281 282 284 290 289 287 281 286 288 286 285 286 285 286 287
313 312 311 310 309 309 307 307 302 301 297 296 294 291 290 287 291 293 295 293 292 294 294 292 291 287 287 284 278 279 281 282 282 285 287 285 283 285 286 285 284 284 285 285 285
312 311 310 308 309 306 301 299 294 292 292 288 288 287 288 291 292 292 292 291 292 291 285 288 285 281 282 284 283 283 282 282 284 286 285 283 283 283 285 285 284 283 284 284 283
311 310 308 308 305 302 300 294 292 294 286 289 289 289 289 289 287 290 293 288 288 284 287 285 282 284 285 284 284 283 282 282 284 286 285 285 282 282 284 283 283 283 283 283 283
310 308 307 306 303 300 298 296 300 297 289 286 288 287 287 289 284 286 289 286 284 283 283 282 283 285 284 283 281 283 281 280 280 284 287 285 282 280 283 284 284 284 284 284 282
307 306 304 306 300 296 295 298 300 298 293 283 284 286 287 287 283 288 289 286 284 281 282 282 285 283 283 282 281 279 283 281 282 283 280 285 279 280 281 280 281 282 283 283 282
305 304 302 304 295 292 295 299 300 298 285 283 283 290 287 285 283 285 289 287 281 280 282 280 280 280 281 280 282 281 283 282 284 283 282 281 279 279 281 277 279 281 282 283 282
304 303 300 296 296 293 298 298 297 291 283 280 283 282 282 282 282 284 285 288 284 280 282 280 283 282 282 283 283 284 281 283 284 283 278 278 277 277 275 276 278 279 281 282 281
303 301 297 295 291 296 298 296 289 285 282 279 279 281 280 278 280 281 278 278 278 278 276 279 279 283 284 281 284 283 282 280 277 277 275 279 279 274 278 279 278 278 279 282 281
303 299 297 295 296 296 297 293 284 283 280 280 280 280 278 277 277 279 279 278 280 277 276 274 276 279 283 280 277 279 278 275 270 273 275 281 274 278 282 281 281 281 280 281 281
301 296 295 296 296 295 293 285 286 281 281 280 279 278 276 277 278 277 277 277 278 279 276 274 274 280 281 282 281 278 276 277 273 273 274 277 277 281 282 279 279 279 279 279 280
297 294 293 297 296 293 287 285 280 281 281 280 279 278 276 276 277 276 274 277 276 280 279 273 273 277 280 283 282 279 279 275 277 270 270 275 273 274 275 275 277 277 276 278 280
298 292 294 296 294 290 284 284 280 281 282 279 278 276 276 276 276 274 274 277 280 279 280 276 272 277 280 277 275 277 275 276 276 275 272 271 275 278 275 276 275 276 277 278 278
295 289 294 295 286 283 282 281 282 280 282 280 280 278 277 276 275 274 275 277 282 281 274 276 274 274 273 277 278 277 274 275 274 272 274 273 276 280 278 278 277 276 278 279 279
291 287 294 293 285 281 279 279 281 279 280 279 278 279 278 276 274 276 276 281 282 281 277 278 272 273 273 275 277 275 275 274 273 273 270 271 276 281 281 279 278 276 277 278 279
290 285 286 287 285 283 279 279 278 281 280 280 279 279 277 275 276 274 275 279 281 281 282 280 271 272 272 272 273 272 273 274 272 273 271 272 273 277 277 276 276 277 278 278 278
293 287 288 282 282 282 282 281 278 276 280 280 278 278 277 273 273 274 276 276 279 279 278 276 272 270 274 274 274 274 273 272 269 272 271 273 271 275 276 275 276 277 277 277 277
287 285 287 282 283 281 281 279 279 278 278 277 277 278 277 276 277 274 275 275 276 277 272 273 273 271 269 273 272 272 275 275 273 273 273 273 273 277 278 279 278 276 276 276 277
290 291 291 283 281 282 281 281 280 280 279 280 280 277 276 276 278 279 279 279 279 276 271 272 272 271 271 271 267 270 272 273 272 274 274 272 275 277 276 277 277 276 276 276 277
Wind_Speed
9 9 10 10 9 8 7 6 5 5 5 6 6 7 9 6 1 8 13 22 23 20 15 7 6 5 3 3 2 1 4 7 11 15 16 19 20 18 21 17 21 19 21 23 21
9 9 9 10 9 8 6 5 4 5 5 5 7 7 8 2 4 14 19 25 17 13 8 11 10 6 3 2 1 4 5 8 13 16 17 19 19 20 11 18 14 18 23 23 18
8 9 9 9 8 8 7 5 4 5 5 5 7 9 4 3 2 12 27 22 14 6 2 3 4 4 3 3 5 2 6 10 15 13 15 13 14 11 13 8 16 23 27 25 20
7 8 9 9 8 7 6 5 3 4 4 6 9 9 2 3 5 13 25 16 11 5 4 6 8 4 5 8 4 6 6 11 11 15 12 7 8 11 15 15 21 24 27 17 14
7 8 8 8 7 7 6 4 3 2 4 7 9 8 3 6 7 11 20 9 4 3 8 7 14 7 9 9 8 3 11 11 12 13 11 5 12 13 21 24 21 23 24 6 7
7 8 8 9 7 7 6 4 2 1 3 5 6 4 1 6 5 15 14 3 7 4 5 8 8 7 5 7 5 11 11 10 5 15 8 3 15 15 23 22 20 21 21 21 17
8 9 9 9 9 8 9 6 2 3 2 3 3 1 9 6 3 16 12 4 5 3 4 6 6 10 13 5 7 7 8 3 9 17 3 10 8 20 23 24 20 22 19 18 18
6 8 9 9 9 8 8 5 4 4 3 2 1 2 5 2 3 20 15 4 7 3 3 6 4 5 11 11 2 7 2 7 9 15 10 5 9 20 22 23 22 22 20 19 21
6 7 9 9 10 10 7 1 2 3 4 1 2 1 5 1 6 15 8 6 5 2 6 6 4 4 11 11 2 2 8 10 5 14 6 10 8 16 22 24 22 21 20 20 19
5 6 8 8 10 10 5 1 6 2 3 0 1 4 4 6 6 15 7 8 4 2 1 6 4 10 12 10 8 15 9 9 10 1 6 13 18 17 21 22 20 20 20 18 18
5 5 7 7 7 8 2 2 3 2 9 6 3 3 2 5 2 17 8 7 1 5 5 5 10 15 16 10 10 12 10 12 10 1 6 3 17 18 21 23 24 24 22 19 20
5 7 6 8 3 2 2 3 2 3 6 4 3 4 3 2 4 20 13 2 6 6 9 2 13 14 11 5 15 5 8 9 2 2 5 4 6 13 22 20 20 20 23 25 27
5 6 8 4 2 4 7 3 3 2 3 2 3 3 3 3 6 14 11 3 8 5 7 12 9 12 10 9 17 7 8 14 9 8 5 13 4 17 18 19 23 24 22 22 23
2 4 7 2 1 1 4 2 2 2 2 2 0 4 4 1 5 5 9 4 4 5 3 3 10 11 17 11 14 7 13 13 8 5 6 12 3 17 22 22 26 27 26 25 26
1 1 8 3 6 3 2 4 3 3 3 4 3 3 5 6 6 10 6 2 5 5 5 5 13 11 14 14 12 8 20 8 2 3 7 11 5 11 23 30 34 31 30 27 24
1 3 2 3 4 1 2 4 3 3 6 3 1 3 2 7 4 7 8 6 2 3 4 3 3 4 9 16 5 19 6 4 1 0 1 10 6 13 19 24 28 25 27 27 25
10 10 4 2 3 2 0 2 3 3 2 3 2 3 6 6 5 9 5 15 8 4 8 5 4 3 13 15 6 22 6 1 2 3 4 7 5 4 15 20 21 23 25 25 24
10 8 11 6 3 5 1 3 3 1 2 1 2 5 4 3 4 6 2 5 10 5 3 7 2 10 13 10 11 10 8 5 4 5 5 4 6 5 16 19 17 17 19 24 24
11 3 3 5 6 3 5 1 4 2 2 6 3 2 3 2 1 2 7 3 5 5 4 4 2 3 4 5 12 7 7 4 5 3 4 4 5 5 18 22 24 23 23 24 24
4 3 2 7 5 1 5 5 2 0 1 2 3 2 3 1 3 2 1 1 0 3 1 3 2 3 4 3 7 8 6 2 1 6 5 3 2 8 20 24 24 23 23 23 23
3 3 1 3 3 3 5 4 2 1 1 2 2 4 3 3 2 3 2 2 2 2 3 4 1 3 2 7 8 8 5 5 2 4 4 5 5 4 10 17 20 19 19 20 22
5 3 2 1 3 2 3 4 4 4 1 1 2 4 3 3 4 3 4 1 2 3 2 3 1 2 4 2 3 3 5 5 5 3 2 3 2 4 7 15 16 16 17 18 18
4 4 1 2 4 2 1 2 2 5 4 4 3 1 1 4 2 3 3 4 2 2 2 4 2 2 3 4 3 2 4 4 2 3 2 4 4 4 13 16 17 16 17 17 19
6 5 1 1 1 6 6 4 5 0 3 3 4 3 4 3 2 5 5 4 2 1 3 2 2 0 2 3 2 4 4 4 4 5 2 5 13 14 18 20 18 18 17 18 16
2 2 2 5 4 6 4 7 6 5 1 4 3 5 5 4 2 4 4 4 3 2 2 0 2 2 4 4 5 6 8 3 2 4 5 5 9 15 14 17 15 14 16 19 19
7 6 1 3 9 9 6 8 9 5 8 4 4 9 5 4 2 9 7 5 4 3 2 2 2 1 1 3 2 8 9 6 5 5 10 7 10 5 15 14 15 13 17 18 19
2 2 3 7 6 6 7 9 12 10 1 2 7 7 6 5 8 10 7 8 4 5 4 0 3 2 1 3 5 7 7 6 3 5 5 4 6 14 15 15 15 14 15 17 18
Wind_Direction
13 14 16 14 16 25 33 34 18 17 8 357 358 350 343 345 242 26 18 342 338 338 341 4 52 17 118 94 53 248 275 312 335 316 318 321 319 318 312 294 297 285 282 283 289
6 8 10 11 8 11 26 38 31 5 354 347 340 338 334 341 132 31 354 345 348 1 6 15 13 8 79 64 91 301 317 349 321 314 316 322 324 325 351 326 320 320 303 302 279
2 3 4 6 3 7 5 20 30 7 353 358 348 342 340 252 177 1 347 350 360 13 38 8 343 357 53 357 14 29 314 330 312 331 331 333 331 333 356 321 320 303 296 284 266
359 360 1 360 358 2 4 356 21 359 355 358 352 353 51 223 23 357 344 347 2 17 27 1 12 8 3 357 11 291 295 313 310 322 324 8 322 340 0 329 327 317 305 277 249
352 357 352 353 354 360 5 344 2 318 319 333 344 353 271 61 20 344 341 346 5 7 28 4 18 358 1 337 325 263 321 319 327 338 70 31 11 335 353 341 349 334 346 315 264
340 346 346 345 347 352 355 325 28 319 301 315 338 317 360 76 327 346 345 3 30 12 27 11 12 351 321 315 318 322 311 303 339 358 138 46 19 19 350 340 358 346 1 3 5
334 338 341 342 337 339 334 297 283 291 314 321 1 111 72 78 10 356 358 17 356 4 23 17 357 17 328 328 333 301 323 137 23 355 26 330 19 6 355 348 0 354 2 355 354
331 334 336 333 334 330 332 283 260 276 277 258 55 195 86 146 335 9 358 36 41 79 343 3 8 345 3 313 258 333 251 341 20 2 17 314 1 2 0 358 357 359 360 358 351
320 329 331 328 333 332 335 331 260 72 96 182 211 266 78 63 357 357 11 358 323 64 40 49 38 10 359 357 338 343 323 345 0 20 60 46 2 355 8 3 2 0 360 356 344
307 323 327 326 330 333 338 234 63 157 52 12 95 148 62 353 324 350 8 356 14 302 158 28 37 13 13 5 4 321 326 337 339 41 13 40 37 14 11 7 3 0 0 358 348
291 313 320 325 332 345 103 183 211 160 47 49 50 64 36 351 303 10 351 321 314 64 23 48 25 12 348 345 318 295 290 316 342 64 301 14 29 15 4 3 5 4 359 356 351
312 321 322 321 55 47 84 64 42 35 105 40 77 74 59 347 359 9 356 52 35 52 356 153 33 355 338 348 336 304 314 350 73 187 308 338 41 25 5 10 2 0 360 357 351
306 334 319 308 112 40 71 64 322 307 89 63 40 37 5 359 44 359 6 22 39 48 24 48 355 336 349 8 359 337 355 331 301 308 219 315 205 15 4 7 357 10 4 5 360
323 355 332 155 149 126 66 302 307 300 81 118 53 24 360 43 66 11 15 359 68 38 336 30 360 348 358 19 354 300 351 312 292 307 8 14 346 31 359 1 3 3 3 359 356
183 106 43 68 118 50 53 300 280 243 298 67 68 355 41 56 324 29 10 24 63 24 286 45 354 358 357 349 330 309 324 290 307 323 311 8 293 11 358 360 359 357 353 355 353
183 182 143 55 63 58 325 299 254 50 250 116 45 11 104 30 42 314 12 55 36 24 19 23 340 325 339 322 296 321 315 220 187 35 290 345 323 37 6 351 341 343 350 348 350
95 75 63 20 98 321 106 308 14 184 61 139 102 75 89 30 37 12 41 43 34 4 15 329 46 353 357 341 353 355 351 348 150 16 3 350 15 46 2 358 348 340 343 347 351
97 79 61 52 7 320 129 15 218 78 167 121 135 101 91 8 40 20 89 63 54 21 53 4 57 5 0 18 318 344 4 16 337 340 337 7 18 46 14 1 357 347 346 349 350
121 54 49 358 343 311 94 81 272 5 84 162 147 157 115 138 136 83 44 50 23 11 34 343 180 333 12 360 352 353 29 342 310 228 262 1 109 142 356 356 357 354 348 350 349
91 81 41 345 319 324 87 236 236 18 88 260 181 315 145 104 156 77 23 11 172 37 267 118 297 13 343 289 56 30 347 244 84 343 339 60 60 357 348 350 351 349 346 345 342
89 110 36 30 309 60 152 184 163 137 14 300 141 122 86 143 87 114 147 175 230 134 119 140 297 53 236 30 3 2 12 2 303 339 334 319 79 347 348 353 345 341 339 340 339
141 144 39 15 61 348 145 157 132 162 134 155 93 97 131 153 116 131 148 105 182 174 149 82 136 345 53 20 283 348 2 13 319 32 50 300 55 29 351 357 347 337 337 337 337
117 104 112 242 162 168 121 103 185 154 184 158 123 87 135 129 122 148 137 123 174 220 203 167 104 321 159 171 152 1 12 26 267 271 41 315 56 331 359 352 354 337 338 340 337
128 129 105 64 33 133 144 194 176 197 129 112 120 116 134 114 28 148 139 169 150 139 73 125 117 332 294 346 13 289 318 13 316 278 360 254 309 334 347 342 347 341 336 338 339
120 147 202 169 195 140 144 156 140 181 222 182 135 221 158 125 110 159 145 147 173 352 79 204 187 187 276 276 244 264 280 271 286 284 269 5 294 314 338 334 335 337 336 337 342
130 147 60 85 112 117 176 194 181 167 163 200 224 156 150 148 214 184 142 193 187 119 78 324 137 173 282 135 259 280 278 253 248 256 262 276 299 334 332 332 346 350 341 337 339
170 76 124 151 139 139 191 170 192 137 210 349 161 127 134 104 90 85 85 87 118 145 125 278 136 209 135 21 316 263 225 203 258 239 261 294 337 326 327 335 339 331 344 337 336